This demonstration page uses our WeatherBlox Daily Observations layout. Learn more.

Left ArrowRight Arrow

Hourly Observations for December 8, 2020

Temp ( °F °C ) Dew Point ( °F °C ) Humidity (%) Winds ( mph kmh ) Pressure ( in mb ) Visibility ( mi km ) Precip ( " mm )
12:15 am 00:15 Clear 33 0.7 16 -8.7 50 50 WNW 8 13 30.26 1025 10 16.0934 0 0
12:35 am 00:35 Clear 33 0.3 17 -8.6 52 52 W 9 15 30.26 1025 10 16.0934 0 0
12:55 am 00:55 Clear 35 1.5 17 -8.5 48 48 WNW 8 13 30.25 1024 10 16.0934 0 0
1:15 am 01:15 Clear 35 1.6 17 -8.6 47 47 WNW 8 13 30.24 1024 10 16.0934 0 0
1:35 am 01:35 Clear 34 1.2 17 -8.3 50 50 WNW 10 17 30.24 1024 10 16.0934 0 0
1:55 am 01:55 Clear 38 3.2 17 -8.5 42 42 WNW 8 13 30.23 1024 10 16.0934 0 0
2:15 am 02:15 Clear 35 1.6 17 -8.6 47 47 WNW 8 13 30.24 1024 10 16.0934 0 0
2:35 am 02:35 Clear 32 0.1 16 -8.7 52 52 WNW 8 13 30.25 1025 10 16.0934 0 0
2:55 am 02:55 Clear 32 0.1 17 -8.5 53 53 WNW 9 15 30.25 1025 10 16.0934 0 0
3:15 am 03:15 Clear 34 1.2 17 -8.1 50 50 WNW 10 17 30.24 1024 10 16.0934 0 0
3:35 am 03:35 Clear 35 1.4 17 -8.1 50 50 NW 10 17 30.24 1024 10 16.0934 0 0
3:55 am 03:55 Clear 33 0.8 18 -8 52 52 NW 9 15 30.25 1024 10 16.0934 0 0
4:15 am 04:15 Clear 35 1.4 18 -8 50 50 WNW 9 15 30.24 1024 10 16.0934 0 0
4:35 am 04:35 Clear 33 0.5 17 -8.3 52 52 NW 10 17 30.24 1024 10 16.0934 0 0
4:55 am 04:55 Clear 34 1.2 17 -8.2 50 50 WNW 9 15 30.22 1023 10 16.0934 0 0
5:15 am 05:15 Clear 33 0.5 17 -8.5 51 51 WNW 8 13 30.23 1024 10 16.0934 0 0
5:35 am 05:35 Clear 32 -0.1 16 -8.7 53 53 WNW 8 13 30.25 1024 10 16.0934 0 0
5:55 am 05:55 Clear 31 -0.6 17 -8.6 55 55 W 8 13 30.25 1024 10 16.0934 0 0
6:15 am 06:15 Clear 32 -0.2 17 -8.5 54 54 W 8 13 30.25 1024 10 16.0934 0 0
6:35 am 06:35 Clear 31 -0.7 17 -8.3 57 57 W 8 13 30.26 1025 10 16.0934 0 0
6:55 am 06:55 Clear 28 -2.3 17 -8.6 62 62 W 6 9 30.28 1025 10 16.0934 0 0
7:15 am 07:15 Clear 29 -1.6 17 -8.5 60 60 W 6 9 30.27 1025 10 16.0934 0 0
7:35 am 07:35 Clear 31 -0.6 17 -8.5 56 56 W 7 11 30.26 1025 10 16.0934 0 0
7:55 am 07:55 Sunny 30 -1.1 17 -8.5 58 58 W 9 15 30.27 1025 10 16.0934 0 0
8:15 am 08:15 Sunny 31 -0.4 17 -8.2 56 56 WNW 9 15 30.26 1025 10 16.0934 0 0
8:35 am 08:35 Sunny 32 0 17 -8.1 55 55 W 6 9 30.26 1025 10 16.0934 0 0
8:55 am 08:55 Sunny 33 0.8 18 -7.9 53 53 WNW 8 13 30.25 1024 10 16.0934 0 0
9:15 am 09:15 Sunny 35 1.5 19 -7.2 53 53 W 7 11 30.24 1024 10 16.0934 0 0
9:35 am 09:35 Sunny 38 3.5 19 -7 47 47 W 8 13 30.22 1023 10 16.0934 0 0
9:55 am 09:55 Sunny 43 6.2 19 -7.1 38 38 WNW 9 15 30.2 1023 10 16.0934 0 0
10:15 am 10:15 Sunny 46 8 20 -6.8 35 35 WNW 9 15 30.18 1022 10 16.0934 0 0
10:35 am 10:35 Sunny 49 9.6 20 -6.8 31 31 WNW 8 13 30.17 1022 10 16.0934 0 0
10:55 am 10:55 Sunny 51 10.7 19 -7 28 28 W 8 13 30.16 1021 10 16.0934 0 0
11:15 am 11:15 Sunny 54 12.4 20 -6.6 26 26 WNW 8 13 30.13 1020 10 16.0934 0 0
11:35 am 11:35 Sunny 56 13.5 20 -6.6 24 24 W 8 13 30.1 1019 10 16.0934 0 0
11:55 am 11:55 Sunny 58 14.3 20 -6.9 23 23 WNW 8 13 30.09 1019 10 16.0934 0 0
12:15 pm 12:15 Sunny 60 15.3 18 -7.7 20 20 W 9 15 30.07 1018 10 16.0934 0 0
12:35 pm 12:35 Sunny 61 16.1 17 -8.2 18 18 WNW 8 13 30.05 1018 10 16.0934 0 0
12:55 pm 12:55 Sunny 62 16.9 17 -8.2 17 17 WNW 9 15 30.03 1017 10 16.0934 0 0
1:15 pm 13:15 Sunny 64 17.8 19 -7.2 18 18 WSW 9 15 30.02 1016 10 16.0934 0 0
1:35 pm 13:35 Sunny 63 17.3 19 -7.2 18 18 SW 6 9 30.01 1016 10 16.0934 0 0
1:55 pm 13:55 Sunny 63 17.4 19 -7.5 18 18 WSW 7 11 30 1016 10 16.0934 0 0
2:15 pm 14:15 Sunny 65 18.1 18 -7.6 17 17 WSW 9 15 29.99 1016 10 16.0934 0 0
2:35 pm 14:35 Sunny 64 17.9 18 -7.8 17 17 WSW 8 13 29.98 1015 10 16.0934 0 0
2:55 pm 14:55 Sunny 65 18.5 18 -8 16 16 WSW 8 13 29.97 1015 10 16.0934 0 0
3:15 pm 15:15 Sunny 64 17.8 17 -8.5 16 16 WSW 9 15 29.97 1015 10 16.0934 0 0
3:35 pm 15:35 Sunny 65 18.5 17 -8.3 15 15 WSW 6 9 29.95 1014 10 16.0934 0 0
3:55 pm 15:55 Sunny 65 18.5 17 -8.1 16 16 WSW 8 13 29.95 1014 10 16.0934 0 0
4:15 pm 16:15 Sunny 64 17.7 17 -8.2 16 16 W 6 9 29.96 1014 10 16.0934 0 0
4:35 pm 16:35 Sunny 62 16.5 17 -8.2 18 18 Calm 29.98 1015 10 16.0934 0 0
4:55 pm 16:55 Sunny 60 15.5 17 -8.5 18 18 Calm 29.99 1016 10 16.0934 0 0
5:15 pm 17:15 Clear 59 14.8 16 -8.9 19 19 W 3 6 30 1016 10 16.0934 0 0
5:35 pm 17:35 Clear 56 13.1 16 -8.8 21 21 W 3 6 30.02 1016 10 16.0934 0 0
5:55 pm 17:55 Clear 54 12.2 16 -9 22 22 W 5 7 30.02 1017 10 16.0934 0 0
6:15 pm 18:15 Clear 53 11.9 16 -9 22 22 W 5 7 30.03 1017 10 16.0934 0 0
6:35 pm 18:35 Clear 51 10.5 15 -9.5 24 24 W 5 7 30.05 1018 10 16.0934 0 0
6:55 pm 18:55 Clear 49 9.5 14 -10 24 24 W 8 13 30.06 1018 10 16.0934 0 0
7:15 pm 19:15 Clear 51 10.8 14 -9.8 23 23 W 8 13 30.05 1017 10 16.0934 0 0
7:35 pm 19:35 Clear 49 9.3 13 -10.3 24 24 W 8 13 30.06 1018 10 16.0934 0 0
7:55 pm 19:55 Clear 49 9.6 14 -10.1 24 24 W 8 13 30.06 1018 10 16.0934 0 0
8:15 pm 20:15 Clear 48 9 13 -10.3 25 25 W 7 11 30.06 1018 10 16.0934 0 0
8:35 pm 20:35 Clear 47 8.3 14 -10 26 26 W 9 15 30.07 1018 10 16.0934 0 0
8:55 pm 20:55 Clear 49 9.7 14 -10.2 24 24 W 8 13 30.06 1018 10 16.0934 0 0
9:15 pm 21:15 Clear 48 9.1 13 -10.5 24 24 W 8 13 30.05 1018 10 16.0934 0 0
9:35 pm 21:35 Clear 48 9 13 -10.3 25 25 W 8 13 30.05 1018 10 16.0934 0 0
9:55 pm 21:55 Clear 46 7.8 13 -10.3 27 27 W 8 13 30.06 1018 10 16.0934 0 0
10:15 pm 22:15 Clear 47 8.1 14 -10 27 27 W 9 15 30.06 1018 10 16.0934 0 0
10:35 pm 22:35 Clear 47 8.2 14 -10.1 26 26 W 9 15 30.06 1018 10 16.0934 0 0
10:55 pm 22:55 Clear 46 7.6 14 -10.1 28 28 W 9 15 30.06 1018 10 16.0934 0 0
11:15 pm 23:15 Clear 45 7 14 -10.1 29 29 W 9 15 30.08 1019 10 16.0934 0 0
11:35 pm 23:35 Clear 44 6.5 14 -10 30 30 W 9 15 30.08 1019 10 16.0934 0 0
11:55 pm 23:55 Clear 44 6.5 14 -10.1 30 30 W 8 13 30.07 1018 10 16.0934 0 0

Powered by AerisWeather